Wind_Speed
8 8 8 8 8 7 7 8 7 7 7 7 8 8 8 9 9 9 10 10 9 9 9 8 8 7 7 7 7 6 6 6 7 7 7 7 7 8 8 9 10 11 11
8 8 8 8 8 7 8 8 8 7 7 7 7 7 8 8 9 9 9 9 9 9 9 8 7 7 6 6 6 5 5 5 5 5 5 6 7 7 7 8 9 10 11
8 8 9 9 8 8 9 9 8 8 7 7 7 8 8 8 9 9 9 9 9 10 9 9 8 7 6 6 5 5 5 4 4 4 4 4 5 6 7 7 8 9 9
9 9 9 9 9 9 9 9 8 8 8 8 8 8 8 9 9 9 10 9 10 10 10 10 9 8 7 6 6 5 5 4 3 2 2 3 4 4 5 6 7 8 8
9 10 10 10 10 10 9 9 9 9 9 9 9 9 9 9 10 10 11 10 10 10 11 11 11 10 9 8 7 7 6 5 4 3 2 1 2 3 4 5 6 7 7
10 10 10 10 11 11 10 10 10 10 11 11 10 10 10 10 11 11 12 11 11 11 11 11 12 11 10 9 9 8 8 7 6 5 3 2 1 2 3 4 5 6 6
11 10 10 11 11 11 11 11 11 12 12 12 12 12 12 12 12 13 13 13 13 13 13 13 13 13 13 12 11 10 10 9 9 7 6 4 3 3 3 4 5 5 6
12 11 11 12 12 12 12 12 13 13 13 13 13 13 13 13 14 14 14 14 14 14 14 15 15 15 14 14 13 12 11 11 11 10 9 8 7 6 5 5 5 5 6
14 13 12 12 12 13 13 14 14 14 14 14 14 14 15 15 15 15 16 16 15 16 16 15 16 16 16 16 15 15 14 13 12 12 11 11 10 9 8 7 7 6 6
15 14 15 14 13 13 14 14 15 15 15 16 16 16 16 16 16 16 17 17 17 17 17 17 17 17 17 17 17 17 16 15 14 14 14 13 13 12 11 10 9 8 8
17 17 16 15 15 15 15 16 16 17 17 17 17 18 17 17 17 18 18 19 19 19 19 19 19 18 19 19 19 19 19 17 16 16 17 16 16 15 14 13 12 11 10
20 20 18 17 17 17 18 18 19 19 20 19 20 20 20 19 19 20 20 20 21 21 20 20 21 21 21 21 21 21 21 20 19 18 18 19 19 18 17 16 15 14 13
22 21 20 20 20 20 21 21 22 22 22 22 23 23 23 22 22 22 22 22 22 22 22 21 22 23 23 24 24 23 23 22 22 21 21 21 21 21 20 19 18 17 16
23 23 23 23 23 24 23 24 23 23 24 25 26 26 26 25 25 25 25 25 25 25 24 24 24 24 24 26 27 26 26 25 24 23 23 22 23 23 23 22 21 20 19
24 24 24 25 26 25 25 26 25 25 27 28 29 29 29 28 28 28 27 28 28 28 27 26 26 26 25 26 27 28 28 28 26 25 25 24 24 25 25 24 24 23 21
26 26 26 27 27 27 27 28 27 28 30 30 30 30 30 30 30 31 30 30 30 30 29 28 28 27 27 27 28 28 28 29 28 28 27 26 25 25 26 25 24 24 23
25 26 26 27 28 29 28 29 29 30 31 32 31 31 30 31 31 32 31 31 32 31 30 29 27 27 27 28 28 28 28 29 28 29 28 27 27 26 26 27 27 26 24
26 27 27 28 29 28 29 31 31 31 32 33 33 33 34 34 34 33 32 32 32 31 30 29 27 27 27 27 28 29 29 30 29 29 28 27 27 27 26 27 28 27 26
25 26 27 28 29 29 30 31 32 33 34 35 35 36 35 34 34 33 33 34 32 31 30 30 29 28 27 28 29 29 28 30 29 29 28 28 28 28 28 28 28 28 27
24 25 26 28 29 30 31 32 33 34 35 35 36 36 36 36 35 35 34 33 32 31 31 31 30 29 28 28 29 29 28 30 29 28 28 28 28 28 28 27 27 27 28
24 25 26 27 29 30 31 33 34 35 36 37 36 36 37 37 37 36 35 33 32 32 31 32 31 31 29 29 30 30 30 29 29 29 29 29 29 29 30 29 28 28 29
23 25 27 28 30 31 33 34 35 36 36 36 37 37 37 37 37 37 36 35 34 33 33 33 32 32 31 32 31 31 31 31 30 30 30 30 30 30 30 31 29 28 28
23 25 26 28 30 32 33 34 35 36 37 37 38 38 38 37 37 37 37 36 35 35 34 33 32 32 32 32 31 31 31 31 31 31 31 31 31 31 31 29 29 29 28
22 23 25 27 29 31 33 34 35 36 37 37 38 38 37 37 37 37 37 36 36 35 35 34 32 32 33 33 33 33 32 31 32 31 31 32 32 31 31 31 30 31 30
23 25 27 28 30 32 33 34 35 36 36 37 37 37 36 36 36 36 36 35 35 35 35 34 34 34 35 35 35 34 34 33 34 32 32 33 33 33 32 32 32 31 31
25 26 28 29 31 32 33 34 34 35 35 36 35 35 35 35 35 35 35 35 34 35 35 35 35 35 35 35 36 36 36 36 37 36 35 35 35 34 33 33 33 33 33
Wind_Direction
350 350 350 349 350 348 345 345 346 348 350 350 351 352 352 352 352 354 355 353 353 353 354 356 360 4 9 14 18 27 37 47 59 68 72 77 83 90 99 104 107 108 110
345 344 340 336 336 335 333 331 331 331 334 335 336 339 339 340 340 341 342 343 342 341 341 342 343 346 351 357 2 8 18 31 47 62 70 76 82 89 97 104 108 111 113
341 337 332 328 327 325 322 320 320 320 320 321 324 327 326 328 330 330 331 332 331 329 328 327 327 329 331 336 341 345 353 6 23 44 62 75 83 90 97 104 111 114 118
339 333 327 324 322 321 317 315 314 313 312 313 316 318 316 316 320 321 321 322 322 320 317 316 314 314 315 316 319 322 325 330 343 6 45 76 89 98 105 110 116 120 123
333 331 324 320 316 315 312 310 310 308 307 307 309 311 310 308 308 310 310 310 311 313 311 308 304 303 303 302 302 303 305 306 307 314 330 47 109 117 119 120 124 128 128
322 322 317 313 310 308 305 303 303 302 300 301 302 303 304 303 301 302 303 302 302 301 302 301 298 296 294 291 290 289 289 290 290 289 288 273 202 163 152 142 137 140 139
315 315 312 308 305 302 300 299 298 297 296 296 297 298 299 298 297 296 295 296 296 295 291 293 292 289 287 285 282 280 279 278 277 277 273 264 242 212 193 178 162 153 150
311 309 307 306 302 301 299 298 299 297 296 295 295 295 296 295 295 294 293 291 289 291 286 283 286 283 282 280 278 274 271 270 269 268 265 258 246 231 217 205 191 177 167
307 305 303 301 299 299 297 296 298 299 298 296 295 294 294 294 294 293 290 290 287 285 284 280 279 277 276 276 274 271 266 264 263 263 259 253 246 238 230 221 211 200 188
300 300 304 301 300 300 300 300 300 300 301 299 296 294 294 293 292 291 290 289 287 283 281 278 276 271 272 272 271 269 266 262 259 258 256 252 248 243 236 230 223 214 205
294 294 298 296 297 299 299 302 302 302 303 300 298 296 294 293 293 292 290 288 287 284 281 276 272 268 269 269 269 266 264 260 257 255 254 252 248 245 240 235 229 223 218
291 289 288 289 290 293 296 298 300 301 300 299 298 296 293 292 292 293 292 290 287 285 283 278 273 268 267 266 265 263 261 258 255 253 250 250 248 244 241 238 234 230 225
287 288 285 289 286 286 289 292 293 296 296 297 296 294 292 291 291 290 290 290 289 287 283 279 275 271 266 263 262 260 258 257 255 253 249 247 247 245 241 238 237 233 229
287 284 286 285 286 283 281 283 287 289 292 293 292 292 290 287 288 288 288 288 288 285 282 280 275 271 268 264 261 260 258 256 255 252 249 246 245 245 242 238 236 235 232
284 285 285 286 289 284 281 281 284 285 288 288 289 287 288 286 286 286 286 285 284 283 280 278 277 271 270 267 263 261 258 255 255 251 248 246 243 243 241 237 234 233 233
284 285 287 288 288 286 285 284 285 285 286 287 288 288 287 285 286 286 284 283 282 280 278 274 275 272 270 271 268 262 259 256 255 251 249 245 242 242 242 238 235 232 231
287 288 288 290 291 291 289 288 290 291 289 291 292 292 287 286 288 286 284 283 282 280 275 273 274 270 270 268 265 261 258 254 254 251 249 245 242 240 239 236 235 232 230
288 290 292 293 294 292 291 294 295 296 294 292 292 291 288 286 287 287 285 286 284 278 274 273 272 269 269 267 263 261 256 252 252 250 247 244 241 238 236 235 232 230 230
288 290 292 293 294 294 293 295 295 294 294 293 290 289 287 288 289 289 287 286 282 276 274 272 272 269 269 265 261 258 255 251 250 247 245 242 238 236 237 236 233 231 229
292 294 295 296 296 296 295 294 294 293 293 292 291 289 288 288 288 288 287 287 280 273 271 270 269 267 267 264 259 254 253 248 247 245 243 241 238 235 234 234 231 230 228
297 297 297 297 296 295 294 293 292 291 290 290 290 289 288 287 286 285 284 282 280 275 271 269 267 265 265 261 256 252 251 249 246 243 243 240 237 234 232 232 232 232 229
298 298 298 297 296 295 295 293 292 291 291 290 289 289 288 286 284 282 280 279 277 273 270 268 266 264 262 260 258 253 249 247 246 243 243 239 236 234 233 231 231 230 229
299 297 297 297 296 296 295 294 293 293 292 290 289 288 287 284 283 281 280 278 275 272 270 267 265 261 259 258 256 253 249 245 244 243 240 236 234 234 234 231 229 227 227
305 303 301 299 298 297 296 294 293 293 292 291 289 288 286 285 283 280 279 276 274 271 270 267 264 260 257 255 253 252 248 245 242 241 236 233 234 234 233 230 228 227 227
310 308 305 303 301 300 298 296 295 294 293 291 290 288 287 284 282 280 278 275 273 270 267 266 263 259 257 255 252 250 247 244 239 237 235 233 232 231 231 230 229 228 227
316 313 311 308 306 304 302 300 299 297 295 293 291 289 288 285 283 280 278 275 272 269 266 264 261 259 257 254 252 250 247 242 237 234 233 232 230 229 229 230 229 229 228
Height
5923 5922 5921 5920 5920 5919 5918 5918 5917 5916 5915 5914 5914 5913 5912 5911 5910 5909 5908 5907 5905 5904 5903 5902 5901 5900 5900 5899 5899 5898 5897 5897 5896 5895 5895 5894 5894 5893 5893 5893 5893 5893 5893
5923 5921 5921 5920 5919 5919 5918 5917 5916 5915 5914 5914 5913 5912 5911 5911 5910 5909 5907 5906 5905 5904 5903 5902 5901 5900 5900 5899 5899 5898 5898 5897 5896 5896 5896 5895 5895 5894 5894 5894 5894 5894 5894
5922 5921 5920 5920 5919 5918 5917 5917 5916 5915 5914 5913 5912 5911 5910 5910 5909 5908 5907 5906 5905 5903 5902 5901 5900 5900 5899 5899 5899 5898 5898 5897 5897 5896 5896 5896 5895 5895 5895 5895 5895 5895 5895
5921 5920 5920 5919 5918 5917 5916 5915 5914 5914 5912 5911 5911 5910 5909 5908 5907 5906 5905 5904 5903 5902 5901 5900 5899 5899 5898 5898 5898 5898 5897 5897 5897 5896 5896 5896 5896 5896 5896 5896 5896 5896 5896
5920 5919 5919 5918 5917 5916 5915 5914 5913 5912 5911 5910 5909 5908 5907 5907 5906 5905 5904 5903 5902 5901 5900 5899 5898 5898 5897 5897 5897 5897 5896 5896 5896 5896 5896 5896 5896 5896 5896 5896 5896 5897 5897
5919 5918 5917 5916 5915 5914 5913 5912 5911 5910 5909 5908 5907 5906 5906 5905 5904 5903 5902 5901 5900 5899 5898 5897 5896 5896 5895 5895 5895 5895 5895 5895 5895 5896 5896 5896 5896 5896 5896 5897 5897 5897 5897
5917 5916 5915 5914 5913 5912 5911 5910 5909 5908 5907 5906 5905 5904 5903 5902 5901 5900 5900 5899 5898 5897 5896 5895 5894 5894 5893 5893 5893 5893 5893 5894 5894 5894 5895 5895 5895 5896 5896 5896 5897 5897 5897
5915 5914 5913 5912 5911 5910 5909 5907 5906 5905 5904 5903 5902 5901 5900 5899 5898 5897 5896 5896 5895 5894 5893 5892 5891 5891 5890 5890 5890 5890 5891 5891 5892 5892 5893 5893 5894 5894 5895 5896 5896 5897 5897
5912 5911 5910 5909 5908 5907 5906 5904 5903 5902 5900 5899 5898 5897 5896 5895 5894 5893 5893 5892 5891 5890 5889 5889 5888 5888 5887 5887 5887 5887 5888 5888 5889 5889 5890 5891 5892 5893 5893 5894 5895 5896 5896
5909 5908 5907 5906 5905 5904 5902 5901 5900 5898 5897 5896 5894 5893 5892 5891 5890 5889 5888 5887 5886 5886 5885 5884 5884 5884 5883 5883 5883 5884 5884 5885 5886 5886 5887 5888 5889 5890 5891 5892 5893 5894 5895
5906 5905 5903 5902 5901 5900 5899 5897 5896 5895 5893 5892 5890 5889 5888 5887 5886 5885 5884 5883 5882 5881 5880 5880 5879 5879 5879 5879 5879 5879 5880 5881 5882 5883 5883 5884 5886 5887 5888 5890 5891 5892 5893
5902 5900 5898 5898 5897 5896 5894 5893 5892 5890 5889 5887 5886 5884 5883 5882 5881 5880 5878 5877 5876 5875 5875 5874 5874 5874 5874 5874 5874 5874 5875 5876 5877 5878 5879 5880 5882 5883 5885 5887 5888 5889 5891
5897 5895 5894 5893 5892 5890 5889 5888 5886 5885 5884 5882 5881 5879 5878 5876 5875 5874 5873 5871 5870 5869 5868 5868 5868 5868 5868 5868 5868 5869 5870 5871 5872 5873 5874 5876 5877 5879 5881 5883 5885 5886 5888
5892 5891 5890 5888 5886 5884 5882 5881 5880 5879 5878 5876 5875 5873 5871 5870 5869 5868 5867 5865 5864 5863 5862 5861 5861 5861 5861 5861 5862 5863 5864 5865 5866 5867 5869 5870 5872 5874 5876 5878 5880 5883 5884
5885 5884 5884 5882 5880 5877 5876 5874 5873 5872 5871 5869 5867 5866 5864 5862 5861 5860 5860 5859 5857 5856 5855 5854 5854 5854 5854 5854 5855 5856 5857 5858 5860 5861 5862 5864 5866 5868 5870 5873 5875 5878 5880
5879 5878 5877 5875 5873 5872 5870 5868 5866 5864 5863 5861 5860 5858 5856 5854 5853 5853 5852 5851 5849 5848 5847 5847 5847 5847 5847 5847 5848 5849 5850 5851 5853 5854 5856 5858 5860 5862 5864 5867 5870 5873 5875
5873 5871 5870 5869 5867 5865 5863 5862 5858 5856 5855 5854 5852 5849 5847 5846 5846 5844 5843 5842 5841 5840 5839 5839 5839 5839 5840 5840 5840 5841 5842 5844 5845 5847 5848 5851 5853 5856 5858 5861 5864 5867 5870
5868 5866 5864 5862 5860 5858 5856 5854 5851 5849 5848 5846 5844 5842 5840 5838 5837 5836 5835 5833 5832 5831 5831 5832 5832 5832 5832 5832 5833 5834 5835 5836 5838 5840 5841 5844 5847 5850 5852 5855 5858 5861 5864
5862 5861 5859 5857 5854 5852 5850 5848 5845 5844 5842 5838 5836 5834 5831 5830 5829 5827 5826 5825 5824 5823 5823 5824 5824 5824 5824 5824 5825 5826 5827 5829 5830 5833 5835 5837 5840 5843 5847 5849 5852 5855 5858
5858 5856 5854 5852 5849 5847 5844 5842 5839 5837 5834 5832 5829 5826 5824 5822 5820 5819 5818 5817 5816 5815 5815 5815 5815 5815 5816 5816 5817 5818 5820 5821 5823 5826 5828 5830 5833 5836 5840 5843 5846 5849 5853
5853 5851 5848 5846 5843 5841 5838 5835 5832 5829 5826 5823 5820 5818 5815 5813 5812 5810 5809 5808 5807 5807 5807 5807 5807 5807 5808 5808 5809 5811 5812 5813 5816 5819 5821 5823 5826 5829 5833 5837 5840 5843 5846
5849 5845 5842 5839 5836 5833 5830 5827 5824 5821 5818 5815 5812 5809 5807 5804 5802 5801 5800 5799 5798 5798 5798 5798 5797 5798 5799 5800 5801 5802 5804 5806 5808 5811 5814 5817 5820 5823 5826 5830 5833 5837 5840
5844 5840 5837 5833 5830 5826 5822 5818 5815 5812 5808 5806 5802 5799 5797 5795 5793 5792 5790 5789 5788 5788 5788 5788 5788 5789 5790 5791 5792 5794 5795 5798 5801 5804 5807 5810 5813 5816 5820 5823 5826 5830 5834
5838 5835 5831 5827 5822 5818 5814 5810 5806 5803 5799 5796 5793 5790 5787 5785 5783 5781 5780 5779 5778 5778 5778 5778 5778 5780 5781 5782 5783 5785 5787 5789 5792 5795 5799 5802 5805 5809 5813 5816 5820 5824 5827
5832 5828 5824 5819 5815 5811 5806 5802 5797 5793 5790 5786 5783 5780 5777 5775 5773 5771 5770 5769 5768 5768 5768 5769 5769 5770 5772 5773 5774 5776 5778 5780 5783 5787 5790 5794 5797 5801 5805 5809 5813 5817 5821
5825 5821 5817 5812 5807 5802 5797 5793 5788 5784 5780 5776 5772 5769 5767 5764 5762 5760 5759 5758 5758 5757 5757 5758 5758 5760 5761 5763 5765 5766 5768 5771 5774 5777 5782 5785 5789 5793 5797 5802 5806 5810 5814